SKY5982 LOWW-LHBP

Flight info

Callsign SKY5982
Flight time 0h 35m
Altitude 23000
Route ADAMA Z647 ANEXA
Aircraft B738/M-SDE2E3FGHIRWXY/LB1

Departure

Time 2026-04-22 17:15
Airport Vienna International Airport (LOWW)

Arrival

Time 2026-04-22 17:50
Airport Budapest Liszt Ferenc International Airport (LHBP)
Time Latitude Longitude Altitude Speed Heading
2026-04-22 16:46 48.11818 16.56222 603 ft 0 kts 297°
2026-04-22 17:09 48.11819 16.56213 603 ft 2 kts 279°
2026-04-22 17:09 48.11805 16.56194 621 ft 4 kts 197°
2026-04-22 17:09 48.11788 16.56195 617 ft 4 kts 170°
2026-04-22 17:09 48.11752 16.56205 614 ft 5 kts 170°
2026-04-22 17:10 48.11715 16.56219 614 ft 6 kts 165°
2026-04-22 17:10 48.11674 16.56233 608 ft 6 kts 176°
2026-04-22 17:10 48.11635 16.56211 610 ft 6 kts 208°
2026-04-22 17:10 48.11598 16.56187 624 ft 6 kts 190°
2026-04-22 17:11 48.11561 16.56209 617 ft 6 kts 134°
2026-04-22 17:11 48.11531 16.56290 615 ft 12 kts 116°
2026-04-22 17:11 48.11485 16.56434 625 ft 18 kts 116°
2026-04-22 17:11 48.11436 16.56583 618 ft 15 kts 116°
2026-04-22 17:12 48.11391 16.56721 616 ft 14 kts 115°
2026-04-22 17:12 48.11349 16.56854 622 ft 14 kts 116°
2026-04-22 17:12 48.11307 16.56980 628 ft 13 kts 116°
2026-04-22 17:12 48.11267 16.57101 626 ft 13 kts 116°
2026-04-22 17:13 48.11228 16.57220 626 ft 13 kts 116°
2026-04-22 17:13 48.11189 16.57338 624 ft 13 kts 116°
2026-04-22 17:13 48.11149 16.57464 627 ft 10 kts 115°
2026-04-22 17:13 48.11104 16.57529 620 ft 9 kts 171°
2026-04-22 17:14 48.11042 16.57503 624 ft 9 kts 203°
2026-04-22 17:14 48.10986 16.57462 625 ft 9 kts 215°
2026-04-22 17:14 48.10968 16.57380 623 ft 9 kts 282°
2026-04-22 17:14 48.11047 16.57124 630 ft 70 kts 296°
2026-04-22 17:15 48.11252 16.56492 625 ft 133 kts 295°
2026-04-22 17:15 48.11920 16.54403 1494 ft 187 kts 297°
2026-04-22 17:15 48.12503 16.52620 2574 ft 197 kts 301°
2026-04-22 17:15 48.13189 16.50720 3177 ft 216 kts 303°
2026-04-22 17:16 48.13755 16.48548 3828 ft 237 kts 285°
2026-04-22 17:16 48.13741 16.45916 4305 ft 270 kts 258°
2026-04-22 17:16 48.12836 16.43429 5580 ft 276 kts 231°
2026-04-22 17:16 48.11266 16.41746 6757 ft 285 kts 204°
2026-04-22 17:17 48.09299 16.41238 7767 ft 293 kts 173°
2026-04-22 17:17 48.07414 16.42321 8824 ft 293 kts 140°
2026-04-22 17:17 48.05980 16.44454 9962 ft 292 kts 130°
2026-04-22 17:17 48.04431 16.46530 10701 ft 312 kts 144°
2026-04-22 17:18 48.02396 16.47957 10955 ft 345 kts 161°
2026-04-22 17:18 48.00021 16.48920 11587 ft 359 kts 159°
2026-04-22 17:18 47.97845 16.50731 12498 ft 359 kts 137°
2026-04-22 17:18 47.96272 16.53560 13534 ft 353 kts 114°
2026-04-22 17:19 47.95710 16.60573 15407 ft 342 kts 73°
2026-04-22 17:19 47.97218 16.67145 17765 ft 330 kts 67°
2026-04-22 17:20 47.98760 16.73639 19104 ft 330 kts 68°
2026-04-22 17:20 47.99922 16.80263 19193 ft 334 kts 81°
2026-04-22 17:21 48.00094 16.83729 19186 ft 335 kts 82°
2026-04-22 17:21 48.00409 16.90660 19171 ft 334 kts 82°
2026-04-22 17:22 48.00943 17.00446 19161 ft 334 kts 81°
2026-04-22 17:22 48.00999 17.07352 19169 ft 338 kts 92°
2026-04-22 17:23 48.00707 17.10837 19166 ft 339 kts 93°
2026-04-22 17:23 48.00076 17.17812 19164 ft 339 kts 93°
2026-04-22 17:23 47.99784 17.21300 19172 ft 339 kts 92°
2026-04-22 17:24 47.99505 17.24795 19163 ft 339 kts 92°
2026-04-22 17:24 47.99233 17.28292 19157 ft 339 kts 92°
2026-04-22 17:24 47.98960 17.31789 19156 ft 339 kts 92°
2026-04-22 17:24 47.98685 17.35241 19157 ft 340 kts 94°
2026-04-22 17:25 47.98331 17.38730 19161 ft 340 kts 95°
2026-04-22 17:25 47.97935 17.42211 19159 ft 340 kts 96°
2026-04-22 17:25 47.97529 17.45688 19160 ft 340 kts 96°
2026-04-22 17:25 47.97124 17.49161 19161 ft 340 kts 96°
2026-04-22 17:26 47.96722 17.52634 19163 ft 340 kts 95°
2026-04-22 17:26 47.96323 17.56104 19155 ft 339 kts 95°
2026-04-22 17:26 47.95926 17.59576 19159 ft 339 kts 95°
2026-04-22 17:26 47.95530 17.63047 19155 ft 339 kts 95°
2026-04-22 17:27 47.95134 17.66512 19172 ft 339 kts 95°
2026-04-22 17:27 47.94738 17.69982 19164 ft 339 kts 95°
2026-04-22 17:27 47.94346 17.73404 19161 ft 339 kts 95°
2026-04-22 17:27 47.93948 17.76873 19158 ft 339 kts 96°
2026-04-22 17:28 47.93549 17.80339 19152 ft 339 kts 96°
2026-04-22 17:28 47.93193 17.83430 19154 ft 339 kts 96°
2026-04-22 17:28 47.92792 17.86897 19156 ft 339 kts 96°
2026-04-22 17:28 47.92389 17.90360 19152 ft 339 kts 96°
2026-04-22 17:29 47.91735 17.93720 19146 ft 345 kts 109°
2026-04-22 17:29 47.90544 17.96851 19156 ft 350 kts 120°
2026-04-22 17:29 47.89157 17.99834 19154 ft 350 kts 120°
2026-04-22 17:29 47.87755 18.02801 19152 ft 351 kts 121°
2026-04-22 17:30 47.86350 18.05771 19163 ft 351 kts 121°
2026-04-22 17:30 47.84967 18.08705 19157 ft 351 kts 120°
2026-04-22 17:30 47.83569 18.11679 19149 ft 348 kts 120°
2026-04-22 17:30 47.82206 18.14579 19136 ft 336 kts 120°
2026-04-22 17:31 47.80890 18.17385 19017 ft 328 kts 120°
2026-04-22 17:31 47.79595 18.20150 18836 ft 322 kts 120°
2026-04-22 17:31 47.78324 18.22870 18549 ft 319 kts 120°
2026-04-22 17:31 47.77064 18.25564 18240 ft 316 kts 120°
2026-04-22 17:32 47.75818 18.28229 17918 ft 313 kts 120°
2026-04-22 17:32 47.74582 18.30868 17601 ft 309 kts 120°
2026-04-22 17:32 47.73360 18.33476 17278 ft 307 kts 120°
2026-04-22 17:32 47.72130 18.36104 16700 ft 313 kts 120°
2026-04-22 17:33 47.71302 18.37869 16415 ft 314 kts 120°
2026-04-22 17:33 47.69650 18.41388 15948 ft 313 kts 121°
2026-04-22 17:33 47.68409 18.44023 15630 ft 311 kts 121°
2026-04-22 17:33 47.67174 18.46645 15262 ft 309 kts 121°
2026-04-22 17:34 47.65942 18.49257 14886 ft 309 kts 121°
2026-04-22 17:34 47.64713 18.51860 14559 ft 307 kts 121°
2026-04-22 17:34 47.63491 18.54448 14221 ft 306 kts 121°
2026-04-22 17:34 47.62272 18.57025 13879 ft 305 kts 121°
2026-04-22 17:35 47.61057 18.59592 13509 ft 303 kts 121°
2026-04-22 17:35 47.59850 18.62138 13160 ft 301 kts 122°
2026-04-22 17:35 47.58666 18.64637 12843 ft 299 kts 122°
2026-04-22 17:35 47.57474 18.67148 12512 ft 297 kts 122°
2026-04-22 17:36 47.56287 18.69646 12150 ft 296 kts 122°
2026-04-22 17:36 47.55099 18.72147 11759 ft 297 kts 122°
2026-04-22 17:36 47.53914 18.74636 11445 ft 294 kts 122°
2026-04-22 17:36 47.52741 18.77099 11138 ft 292 kts 122°
2026-04-22 17:37 47.51576 18.79541 10840 ft 289 kts 122°
2026-04-22 17:37 47.50419 18.81965 10511 ft 288 kts 122°
2026-04-22 17:37 47.49264 18.84384 10207 ft 286 kts 122°
2026-04-22 17:37 47.48134 18.86747 10074 ft 278 kts 122°
2026-04-22 17:38 47.47029 18.89055 9828 ft 274 kts 122°
2026-04-22 17:38 47.45931 18.91347 9522 ft 272 kts 122°
2026-04-22 17:38 47.44861 18.93581 9271 ft 268 kts 122°
2026-04-22 17:38 47.43786 18.95823 8997 ft 266 kts 122°
2026-04-22 17:39 47.42719 18.98047 8729 ft 265 kts 122°
2026-04-22 17:39 47.41656 19.00260 8463 ft 263 kts 122°
2026-04-22 17:39 47.39553 19.04635 7941 ft 260 kts 123°
2026-04-22 17:40 47.38507 19.06809 7679 ft 259 kts 123°
2026-04-22 17:40 47.37466 19.08970 7420 ft 258 kts 123°
2026-04-22 17:40 47.36427 19.11122 7165 ft 257 kts 123°
2026-04-22 17:40 47.35406 19.13239 6908 ft 256 kts 123°
2026-04-22 17:41 47.34375 19.15373 6658 ft 255 kts 123°
2026-04-22 17:41 47.33346 19.17504 6394 ft 255 kts 123°
2026-04-22 17:41 47.32319 19.19626 6127 ft 254 kts 123°
2026-04-22 17:41 47.31281 19.21772 6033 ft 258 kts 123°
2026-04-22 17:42 47.30240 19.23922 5995 ft 257 kts 123°
2026-04-22 17:42 47.29223 19.26017 5975 ft 245 kts 123°
2026-04-22 17:42 47.28251 19.28017 5897 ft 237 kts 123°
2026-04-22 17:42 47.27298 19.29982 5662 ft 236 kts 123°
2026-04-22 17:43 47.26345 19.31948 5406 ft 235 kts 123°
2026-04-22 17:43 47.25407 19.33879 5154 ft 235 kts 123°
2026-04-22 17:43 47.24457 19.35831 4931 ft 234 kts 123°
2026-04-22 17:43 47.23511 19.37774 4707 ft 232 kts 124°
2026-04-22 17:44 47.22574 19.39697 4488 ft 231 kts 124°
2026-04-22 17:44 47.21796 19.41736 4216 ft 229 kts 101°
2026-04-22 17:44 47.21887 19.44004 3965 ft 222 kts 66°
2026-04-22 17:44 47.22772 19.45805 3717 ft 218 kts 37°
2026-04-22 17:45 47.24079 19.46883 3459 ft 215 kts 20°
2026-04-22 17:45 47.25476 19.47687 3199 ft 216 kts 20°
2026-04-22 17:45 47.26857 19.48480 3052 ft 217 kts 20°
2026-04-22 17:45 47.28285 19.49253 3006 ft 220 kts 12°
2026-04-22 17:46 47.29760 19.49083 3002 ft 211 kts 334°
2026-04-22 17:46 47.30883 19.47833 2995 ft 196 kts 314°
2026-04-22 17:46 47.31758 19.46411 2981 ft 179 kts 313°
2026-04-22 17:46 47.32561 19.45125 2973 ft 162 kts 315°
2026-04-22 17:47 47.33308 19.43959 2993 ft 154 kts 314°
2026-04-22 17:47 47.34030 19.42804 2881 ft 152 kts 315°
2026-04-22 17:47 47.34729 19.41675 2693 ft 147 kts 314°
2026-04-22 17:47 47.35408 19.40573 2508 ft 146 kts 314°
2026-04-22 17:48 47.35797 19.39942 2392 ft 147 kts 314°
2026-04-22 17:48 47.36696 19.38483 2132 ft 146 kts 314°
2026-04-22 17:48 47.37378 19.37375 1928 ft 145 kts 314°
2026-04-22 17:48 47.38056 19.36275 1736 ft 145 kts 313°
2026-04-22 17:49 47.38739 19.35167 1540 ft 148 kts 314°
2026-04-22 17:49 47.39411 19.34059 1384 ft 143 kts 313°
2026-04-22 17:49 47.40084 19.32977 1137 ft 143 kts 313°
2026-04-22 17:49 47.40767 19.31889 939 ft 146 kts 311°
2026-04-22 17:50 47.41451 19.30769 721 ft 148 kts 312°
2026-04-22 17:50 47.42141 19.29649 567 ft 148 kts 311°
2026-04-22 17:50 47.42819 19.28532 451 ft 135 kts 314°
2026-04-22 17:50 47.43225 19.27889 460 ft 43 kts 313°
2026-04-22 17:51 47.43304 19.27722 462 ft 13 kts 299°
2026-04-22 17:51 47.43340 19.27603 465 ft 13 kts 288°
2026-04-22 17:51 47.43360 19.27478 461 ft 13 kts 282°
2026-04-22 17:51 47.43380 19.27341 460 ft 14 kts 282°
2026-04-22 17:52 47.43402 19.27193 458 ft 13 kts 282°
2026-04-22 17:52 47.43418 19.27081 456 ft 11 kts 282°
2026-04-22 17:52 47.43446 19.26976 457 ft 12 kts 303°
2026-04-22 17:52 47.43502 19.26878 457 ft 13 kts 313°
2026-04-22 17:53 47.43561 19.26783 457 ft 12 kts 312°
2026-04-22 17:53 47.43618 19.26691 457 ft 12 kts 312°
2026-04-22 17:53 47.43674 19.26601 456 ft 12 kts 312°
2026-04-22 17:53 47.43729 19.26513 457 ft 11 kts 312°
2026-04-22 17:54 47.43740 19.26409 457 ft 11 kts 236°
2026-04-22 17:54 47.43684 19.26329 455 ft 11 kts 221°
2026-04-22 17:54 47.43627 19.26254 456 ft 11 kts 222°
2026-04-22 17:54 47.43583 19.26192 456 ft 7 kts 224°
2026-04-22 17:55 47.43558 19.26166 454 ft 7 kts 200°
2026-04-22 17:55 47.43496 19.26166 456 ft 7 kts 178°
2026-04-22 17:55 47.43462 19.26169 456 ft 2 kts 177°
2026-04-22 17:55 47.43453 19.26169 456 ft 1 kts 176°
2026-04-22 17:56 47.43452 19.26169 456 ft 0 kts 176°